QPF
0.00 0.00 0.00 0.00 0.00 0.00 0.00 0.00 0.00 0.00 0.00 0.00 0.00 0.00 0.00 0.00 0.00 0.00 0.00 0.00 0.00 0.00 0.00 0.00 0.00 0.00 0.00 0.00 0.00 0.03 0.13 0.04 0.02 0.05 0.02 0.00 0.01 0.00 0.00 0.00 0.00 0.00 0.00 0.00 0.00
0.00 0.00 0.00 0.00 0.00 0.00 0.00 0.00 0.00 0.00 0.00 0.00 0.00 0.00 0.00 0.00 0.00 0.00 0.00 0.00 0.00 0.00 0.00 0.00 0.00 0.00 0.00 0.00 0.00 0.00 0.01 0.00 0.00 0.01 0.00 0.00 0.00 0.00 0.00 0.00 0.00 0.00 0.00 0.00 0.00
0.00 0.00 0.00 0.00 0.00 0.00 0.00 0.00 0.00 0.00 0.00 0.00 0.00 0.00 0.00 0.00 0.00 0.00 0.00 0.00 0.00 0.00 0.00 0.00 0.00 0.00 0.00 0.00 0.00 0.00 0.00 0.00 0.00 0.00 0.00 0.00 0.01 0.00 0.04 0.00 0.02 0.01 0.00 0.00 0.00
0.00 0.00 0.00 0.00 0.00 0.00 0.00 0.00 0.00 0.00 0.00 0.00 0.00 0.00 0.00 0.00 0.00 0.00 0.00 0.00 0.00 0.00 0.00 0.00 0.00 0.00 0.00 0.01 0.01 0.03 0.01 0.00 0.00 0.00 0.00 0.00 0.00 0.01 0.01 0.00 0.00 0.00 0.00 0.00 0.00
0.00 0.00 0.00 0.00 0.00 0.00 0.00 0.00 0.00 0.00 0.00 0.00 0.00 0.00 0.00 0.00 0.00 0.00 0.00 0.00 0.00 0.00 0.00 0.00 0.00 0.00 0.00 0.00 0.02 0.04 0.00 0.00 0.00 0.00 0.00 0.00 0.00 0.00 0.00 0.00 0.00 0.00 0.00 0.00 0.00
0.00 0.00 0.00 0.00 0.00 0.00 0.00 0.00 0.00 0.00 0.00 0.00 0.00 0.00 0.00 0.00 0.00 0.00 0.00 0.00 0.00 0.00 0.00 0.00 0.00 0.00 0.00 0.00 0.01 0.01 0.00 0.00 0.00 0.00 0.00 0.00 0.00 0.00 0.00 0.00 0.00 0.00 0.00 0.00 0.00
0.00 0.00 0.00 0.00 0.00 0.00 0.00 0.00 0.00 0.00 0.00 0.00 0.00 0.00 0.00 0.00 0.00 0.00 0.00 0.00 0.00 0.00 0.00 0.00 0.00 0.00 0.00 0.00 0.00 0.00 0.01 0.02 0.00 0.00 0.00 0.00 0.00 0.00 0.00 0.00 0.00 0.00 0.00 0.00 0.00
0.00 0.00 0.00 0.00 0.00 0.00 0.00 0.00 0.00 0.00 0.00 0.00 0.00 0.00 0.00 0.00 0.00 0.00 0.00 0.00 0.00 0.00 0.00 0.00 0.00 0.00 0.00 0.00 0.01 0.02 0.01 0.03 0.00 0.00 0.00 0.01 0.01 0.00 0.00 0.00 0.00 0.00 0.00 0.00 0.00
0.00 0.00 0.00 0.00 0.00 0.00 0.00 0.00 0.00 0.00 0.00 0.00 0.00 0.00 0.00 0.00 0.00 0.00 0.00 0.00 0.00 0.00 0.00 0.00 0.00 0.00 0.00 0.00 0.08 0.02 0.00 0.01 0.00 0.00 0.00 0.00 0.10 0.00 0.00 0.00 0.00 0.00 0.00 0.00 0.00
0.00 0.00 0.00 0.00 0.00 0.00 0.00 0.00 0.00 0.00 0.00 0.00 0.00 0.00 0.00 0.00 0.00 0.00 0.00 0.00 0.00 0.00 0.00 0.00 0.00 0.00 0.00 0.00 0.00 0.00 0.00 0.00 0.00 0.00 0.00 0.00 0.00 0.00 0.00 0.00 0.00 0.00 0.00 0.00 0.00
0.00 0.00 0.00 0.00 0.00 0.00 0.00 0.00 0.00 0.00 0.00 0.00 0.00 0.00 0.00 0.00 0.00 0.00 0.00 0.00 0.00 0.00 0.00 0.00 0.00 0.00 0.00 0.00 0.00 0.00 0.00 0.00 0.00 0.00 0.00 0.00 0.00 0.00 0.00 0.00 0.00 0.00 0.00 0.00 0.00
0.00 0.00 0.00 0.00 0.00 0.00 0.00 0.00 0.00 0.00 0.00 0.00 0.00 0.00 0.00 0.00 0.00 0.00 0.00 0.00 0.00 0.00 0.00 0.00 0.00 0.00 0.00 0.00 0.00 0.00 0.00 0.01 0.02 0.00 0.00 0.00 0.00 0.00 0.00 0.00 0.00 0.00 0.00 0.00 0.00
0.00 0.00 0.00 0.00 0.00 0.00 0.00 0.00 0.00 0.00 0.00 0.00 0.00 0.00 0.00 0.00 0.00 0.00 0.00 0.00 0.00 0.00 0.00 0.00 0.00 0.00 0.00 0.00 0.00 0.00 0.00 0.01 0.00 0.00 0.00 0.01 0.01 0.03 0.03 0.01 0.00 0.00 0.00 0.00 0.00
0.00 0.00 0.00 0.00 0.00 0.00 0.00 0.00 0.00 0.00 0.00 0.00 0.00 0.00 0.00 0.00 0.00 0.00 0.00 0.00 0.00 0.00 0.00 0.00 0.00 0.00 0.00 0.00 0.00 0.00 0.00 0.00 0.00 0.00 0.03 0.02 0.15 0.32 0.09 0.04 0.01 0.00 0.00 0.00 0.00
0.00 0.00 0.00 0.00 0.00 0.00 0.00 0.00 0.00 0.00 0.00 0.00 0.00 0.00 0.00 0.00 0.00 0.00 0.00 0.00 0.00 0.00 0.00 0.00 0.00 0.00 0.00 0.00 0.00 0.00 0.00 0.00 0.00 0.00 0.00 0.11 0.08 0.06 0.09 0.11 0.01 0.00 0.00 0.00 0.00
0.00 0.00 0.00 0.00 0.00 0.00 0.00 0.00 0.00 0.00 0.00 0.00 0.00 0.00 0.00 0.00 0.00 0.00 0.00 0.00 0.00 0.00 0.00 0.00 0.00 0.00 0.00 0.00 0.00 0.00 0.00 0.00 0.00 0.00 0.02 0.04 0.01 0.02 0.19 0.05 0.01 0.00 0.00 0.00 0.00
0.00 0.00 0.00 0.00 0.00 0.00 0.00 0.00 0.00 0.00 0.00 0.00 0.00 0.00 0.00 0.00 0.00 0.00 0.00 0.00 0.00 0.00 0.00 0.00 0.00 0.00 0.00 0.00 0.00 0.00 0.00 0.00 0.00 0.02 0.09 0.06 0.00 0.01 0.01 0.00 0.00 0.00 0.00 0.00 0.00
0.00 0.00 0.00 0.00 0.00 0.00 0.00 0.00 0.00 0.00 0.00 0.00 0.00 0.00 0.00 0.00 0.00 0.00 0.00 0.00 0.00 0.00 0.00 0.00 0.00 0.00 0.00 0.00 0.00 0.00 0.00 0.00 0.00 0.02 0.05 0.01 0.03 0.04 0.00 0.00 0.00 0.00 0.00 0.00 0.00
0.00 0.00 0.00 0.00 0.00 0.00 0.00 0.00 0.00 0.00 0.00 0.00 0.00 0.00 0.00 0.00 0.00 0.00 0.00 0.00 0.00 0.00 0.00 0.00 0.00 0.00 0.00 0.00 0.00 0.00 0.00 0.00 0.00 0.00 0.00 0.04 0.03 0.02 0.01 0.02 0.03 0.00 0.00 0.00 0.00
0.00 0.00 0.00 0.00 0.00 0.00 0.00 0.00 0.00 0.00 0.00 0.00 0.00 0.00 0.00 0.00 0.00 0.00 0.00 0.00 0.00 0.00 0.00 0.00 0.00 0.00 0.00 0.00 0.00 0.00 0.00 0.00 0.00 0.00 0.00 0.01 0.04 0.05 0.01 0.01 0.04 0.00 0.00 0.00 0.00
0.00 0.00 0.00 0.00 0.00 0.00 0.00 0.00 0.00 0.00 0.00 0.00 0.00 0.00 0.00 0.00 0.00 0.00 0.00 0.00 0.00 0.00 0.00 0.00 0.00 0.00 0.00 0.00 0.00 0.00 0.00 0.00 0.00 0.00 0.00 0.00 0.00 0.01 0.02 0.00 0.00 0.00 0.00 0.00 0.00
0.00 0.00 0.00 0.00 0.00 0.00 0.00 0.00 0.00 0.00 0.00 0.00 0.00 0.00 0.00 0.00 0.00 0.00 0.00 0.00 0.00 0.00 0.00 0.00 0.00 0.00 0.00 0.00 0.00 0.00 0.00 0.00 0.00 0.00 0.00 0.00 0.00 0.00 0.00 0.00 0.00 0.00 0.00 0.00 0.00
0.00 0.00 0.00 0.00 0.00 0.00 0.00 0.00 0.00 0.00 0.00 0.00 0.00 0.00 0.00 0.00 0.00 0.00 0.00 0.00 0.00 0.00 0.00 0.00 0.00 0.00 0.00 0.00 0.00 0.00 0.00 0.00 0.00 0.00 0.00 0.01 0.03 0.00 0.00 0.00 0.00 0.00 0.00 0.00 0.00
0.00 0.00 0.00 0.00 0.00 0.00 0.00 0.00 0.00 0.00 0.00 0.00 0.00 0.00 0.00 0.00 0.00 0.00 0.00 0.00 0.00 0.00 0.00 0.00 0.00 0.00 0.00 0.00 0.00 0.00 0.00 0.00 0.00 0.00 0.00 0.00 0.00 0.00 0.00 0.00 0.00 0.00 0.00 0.00 0.00
0.00 0.00 0.00 0.00 0.00 0.00 0.00 0.00 0.00 0.00 0.00 0.00 0.00 0.00 0.00 0.00 0.00 0.00 0.00 0.00 0.00 0.00 0.00 0.00 0.00 0.00 0.00 0.00 0.00 0.00 0.00 0.00 0.00 0.00 0.00 0.00 0.00 0.00 0.00 0.00 0.00 0.00 0.00 0.00 0.00
0.00 0.00 0.00 0.00 0.00 0.00 0.00 0.00 0.00 0.00 0.00 0.00 0.00 0.00 0.00 0.00 0.00 0.00 0.00 0.00 0.00 0.00 0.00 0.00 0.00 0.00 0.00 0.00 0.00 0.00 0.00 0.00 0.00 0.00 0.00 0.00 0.00 0.00 0.00 0.00 0.00 0.00 0.00 0.00 0.00
0.00 0.00 0.00 0.00 0.00 0.00 0.00 0.00 0.00 0.00 0.00 0.00 0.00 0.00 0.00 0.00 0.00 0.00 0.00 0.00 0.00 0.05 0.01 0.00 0.00 0.00 0.00 0.00 0.00 0.00 0.00 0.00 0.00 0.00 0.00 0.00 0.00 0.00 0.00 0.00 0.00 0.00 0.00 0.00 0.00
MSLP
1015.37 1015.08 1014.62 1014.28 1013.87 1013.52 1013.19 1012.84 1012.35 1011.83 1011.36 1010.83 1010.33 1009.75 1009.31 1008.76 1007.30 1005.48 1004.22 1003.30 1003.43 1003.30 1003.63 1002.41 1001.94 1000.72 999.58 999.26 999.59 1002.41 1005.48 1005.45 1003.85 1002.75 1001.03 1000.83 1000.91 1000.69 1000.56 1000.52 1001.52 1001.64 1002.66 1003.96 1004.65
1015.64 1015.23 1014.78 1014.40 1013.93 1013.49 1013.11 1012.80 1012.39 1011.94 1011.39 1010.86 1010.22 1009.59 1009.14 1008.82 1007.19 1004.57 1003.02 1003.15 1003.13 1003.39 1003.17 1001.61 999.95 999.33 998.76 998.75 999.74 1000.82 1002.56 1001.11 1000.70 1000.89 999.95 999.84 1000.15 1000.37 1001.03 1001.15 1001.65 1002.53 1003.40 1004.16 1004.71
1015.80 1015.36 1014.90 1014.38 1013.86 1013.48 1013.11 1012.79 1012.43 1011.95 1011.39 1010.80 1010.17 1009.54 1009.10 1008.92 1005.96 1002.46 1002.64 1003.00 1003.09 1003.17 1002.68 1001.56 1000.37 999.34 999.04 1000.07 1000.44 1001.99 1000.12 999.81 999.63 999.89 999.31 999.80 1000.32 1001.27 1002.37 1001.10 1002.34 1002.64 1003.46 1004.23 1004.63
1015.90 1015.43 1014.87 1014.37 1013.87 1013.49 1013.07 1012.69 1012.25 1011.86 1011.32 1010.72 1010.24 1009.58 1008.66 1007.87 1004.07 1002.15 1002.44 1002.60 1002.88 1002.86 1002.39 1001.41 999.70 998.63 999.10 1000.02 1000.77 1000.40 1000.79 999.60 999.37 999.22 998.72 999.42 1000.04 1001.93 1001.12 1000.78 1001.58 1002.47 1003.41 1004.11 1004.64
1015.93 1015.35 1014.84 1014.36 1013.87 1013.37 1012.89 1012.48 1012.05 1011.59 1011.14 1010.60 1010.07 1009.60 1007.93 1005.64 1002.38 1001.96 1002.36 1002.37 1002.65 1002.53 1001.71 1000.68 999.06 998.04 998.01 999.87 1000.06 999.29 999.41 999.11 999.02 998.94 998.65 998.87 999.36 1000.14 1000.37 1000.49 1001.34 1002.45 1003.44 1004.00 1004.48
1016.03 1015.49 1014.87 1014.31 1013.82 1013.31 1012.72 1012.28 1011.83 1011.37 1010.88 1010.33 1010.02 1009.79 1008.08 1004.31 1000.83 1001.00 1001.41 1001.74 1001.34 1001.35 1000.75 999.79 998.61 998.17 998.02 997.66 998.28 999.04 998.87 998.79 999.02 998.71 998.60 998.95 998.96 999.83 1000.03 1000.36 1001.34 1002.56 1003.50 1004.01 1004.20
1016.06 1015.52 1014.91 1014.31 1013.73 1013.02 1012.34 1011.84 1011.46 1011.00 1010.49 1010.08 1009.94 1009.31 1006.44 1002.82 1000.75 1000.58 1000.96 1000.90 1000.56 1000.01 999.67 998.73 998.37 998.56 998.03 997.95 998.35 999.64 999.39 1000.80 998.78 998.63 998.21 998.71 998.79 999.30 999.92 1000.52 1001.49 1002.33 1003.05 1003.63 1003.98
1016.00 1015.43 1014.86 1014.21 1013.60 1012.78 1011.93 1011.27 1010.82 1010.39 1009.94 1009.71 1009.67 1008.62 1004.45 1000.99 1000.67 1000.68 1000.50 1000.36 1000.02 999.62 999.46 998.98 998.90 998.81 998.15 999.26 1000.04 1002.00 1001.17 1001.06 998.73 998.33 998.09 998.89 999.29 999.67 999.86 1000.44 1001.19 1001.95 1002.65 1003.33 1003.72
1015.96 1015.37 1014.71 1014.00 1013.33 1012.55 1011.67 1010.84 1010.24 1009.75 1009.60 1009.38 1008.86 1007.02 1002.92 1001.26 1000.74 1000.55 1000.19 999.93 999.67 999.55 999.36 999.08 999.09 998.66 997.80 998.83 1000.74 1002.71 1001.62 999.50 998.41 998.05 997.57 998.54 999.75 999.59 999.74 999.95 1000.66 1001.44 1002.25 1002.97 1003.52
1015.98 1015.34 1014.62 1013.81 1013.00 1012.33 1011.29 1009.88 1009.16 1009.31 1009.00 1008.00 1006.95 1005.64 1002.01 1000.25 999.61 999.78 999.83 999.69 999.20 999.00 999.02 998.91 998.73 998.05 997.22 998.95 999.62 999.84 998.83 998.20 997.70 997.81 997.84 997.65 998.26 999.02 999.23 999.50 1000.18 1000.93 1001.71 1002.63 1003.15
1015.80 1015.12 1014.43 1013.58 1012.70 1012.27 1011.25 1008.32 1008.73 1008.03 1006.73 1004.53 1003.06 1001.80 1000.16 999.76 999.76 999.57 999.27 999.36 999.13 998.67 998.47 998.45 998.15 996.94 996.25 997.38 997.47 997.16 996.91 997.56 997.47 997.24 997.64 997.73 997.98 998.53 999.22 999.66 999.76 1000.47 1001.16 1001.94 1002.53
1015.58 1014.85 1014.07 1013.20 1012.31 1011.67 1011.68 1008.12 1005.83 1005.52 1004.15 1002.60 1002.01 1000.81 1000.03 999.94 999.74 999.41 999.61 999.22 999.12 998.52 998.23 997.98 997.26 996.44 995.77 995.75 996.41 996.33 996.43 997.59 998.28 997.14 997.65 998.33 998.91 999.77 999.29 999.85 999.72 1000.02 1000.47 1001.17 1001.71
1015.44 1014.71 1014.05 1012.90 1011.64 1010.35 1008.56 1006.42 1005.71 1005.05 1003.61 1000.65 999.78 999.52 999.59 999.82 999.39 998.48 998.83 998.74 998.51 998.41 997.76 997.21 996.54 996.02 995.71 995.42 995.87 995.66 996.11 997.16 996.62 997.20 998.05 999.56 1001.14 1002.05 1002.05 1001.26 999.89 999.66 999.89 1000.08 1000.70
1015.39 1014.76 1014.22 1013.06 1011.20 1008.81 1006.68 1005.93 1005.57 1004.98 1002.92 998.83 998.29 998.38 998.63 999.03 998.64 998.41 997.95 998.39 998.25 997.69 997.45 996.80 996.31 995.57 995.24 995.02 995.50 995.03 995.71 995.98 996.33 997.40 999.16 1001.48 1006.38 1005.61 1005.47 1003.16 999.99 999.30 999.03 999.08 999.62
1015.24 1014.58 1014.13 1014.37 1011.92 1008.36 1006.36 1005.98 1005.59 1004.85 1001.35 997.52 997.67 998.15 997.93 998.39 997.05 997.68 997.38 997.87 997.63 997.31 996.89 996.18 995.86 995.34 995.25 994.78 994.87 995.15 994.93 995.94 996.75 997.80 999.85 1004.41 1007.61 1007.43 1006.70 1004.56 1000.80 998.50 998.01 998.14 998.63
1015.08 1014.46 1014.20 1011.74 1011.40 1008.14 1006.64 1006.00 1005.39 1003.84 999.27 997.10 997.39 997.77 997.79 997.89 997.33 996.53 997.36 997.57 997.56 997.27 996.72 996.09 995.50 995.04 995.14 994.84 994.92 995.08 995.19 995.77 996.39 997.25 1001.86 1004.35 1005.82 1005.54 1004.74 1001.31 999.38 997.50 997.08 997.20 997.77
1014.59 1013.91 1014.29 1012.57 1008.53 1007.06 1006.82 1005.85 1004.25 1001.37 997.51 996.70 996.47 996.75 997.17 997.01 997.15 996.47 997.00 997.22 997.16 996.92 996.38 995.87 995.35 995.15 994.87 994.70 994.48 994.89 995.02 995.38 995.37 997.91 1002.79 1002.80 1004.53 1004.05 1002.23 999.39 999.28 996.51 996.42 996.49 997.00
1013.97 1012.48 1010.84 1010.03 1007.85 1007.44 1006.79 1005.48 1002.63 999.07 997.61 996.19 996.40 996.05 996.21 996.22 996.35 996.40 996.34 996.57 996.78 996.44 995.47 995.05 994.46 994.43 994.62 994.47 994.41 994.33 994.49 994.96 995.57 997.59 1000.23 1001.94 1003.66 1002.06 1000.51 998.55 996.82 996.65 996.58 996.51 996.53
1013.41 1010.01 1008.66 1007.69 1008.08 1007.66 1006.53 1004.04 1001.29 998.75 997.34 996.63 996.52 996.18 995.72 995.70 995.50 995.88 995.66 995.68 995.68 996.03 995.57 994.30 993.51 992.81 993.59 994.12 994.44 994.30 993.98 994.38 995.08 995.79 997.71 1002.87 1002.50 1000.84 1000.56 999.16 998.13 997.28 997.24 997.04 996.75
1013.53 1009.84 1006.58 1005.40 1006.57 1006.78 1005.60 1002.99 1000.43 998.80 998.09 998.03 997.56 996.32 995.32 994.87 995.08 995.09 995.08 995.07 994.86 994.86 995.13 994.66 993.88 993.05 992.71 993.50 993.95 994.13 994.12 993.96 994.35 995.62 996.92 999.38 1000.40 1000.45 1000.31 999.91 999.01 997.73 996.81 997.05 997.20
1012.65 1008.09 1004.81 1005.32 1006.05 1005.76 1003.93 1002.06 1000.40 999.17 998.87 998.90 998.14 996.95 995.78 994.80 994.43 994.58 994.64 994.41 994.22 994.32 994.48 994.59 994.50 993.75 993.21 993.00 993.46 993.87 994.15 994.17 994.28 995.33 996.88 997.42 999.88 998.48 997.50 996.47 995.95 995.93 996.13 996.87 997.34
1011.05 1006.92 1004.90 1005.26 1005.35 1004.22 1002.83 1001.58 1000.05 999.05 998.61 998.96 998.78 997.93 996.96 996.03 994.99 994.50 994.29 993.78 993.74 994.18 994.18 994.42 994.54 994.04 993.23 992.65 993.21 993.40 993.25 993.73 993.87 994.53 995.02 995.88 997.19 997.64 996.57 995.82 995.19 995.31 995.91 996.66 997.36
1010.66 1006.10 1004.33 1004.80 1003.97 1002.69 1001.55 1000.79 999.61 999.29 999.20 998.96 998.55 998.37 997.89 996.86 996.29 995.26 994.40 993.90 993.96 994.17 994.51 994.82 994.58 994.46 993.57 992.88 992.48 993.01 993.34 993.29 993.66 993.76 993.90 996.09 997.31 996.73 995.50 995.08 995.08 995.19 996.12 997.14 997.74
1011.22 1006.01 1003.84 1004.15 1003.63 1002.59 1001.08 999.64 999.27 999.36 999.57 999.03 998.60 998.21 997.78 997.27 996.88 996.12 995.02 994.32 994.40 994.87 995.57 995.49 994.69 994.32 993.70 992.84 992.30 992.34 992.84 993.16 993.25 993.05 993.22 994.01 995.11 996.24 995.25 994.86 995.15 995.40 996.26 997.39 998.13
1010.94 1006.35 1005.10 1003.67 1002.77 1002.38 1001.40 1000.11 999.24 998.98 998.97 999.23 999.02 998.70 998.21 997.77 997.13 996.38 995.82 994.88 994.66 995.31 995.81 995.98 995.25 994.75 994.03 993.29 992.53 992.04 992.00 992.54 992.68 992.73 992.68 993.02 994.69 995.24 995.80 994.67 995.77 994.99 995.89 997.01 998.03
1010.54 1007.93 1006.29 1005.22 1003.70 1002.03 1000.94 1000.56 999.85 999.22 998.81 998.49 998.71 998.47 998.21 997.94 997.20 996.19 996.27 995.58 995.16 995.34 995.71 996.01 995.75 995.40 994.58 993.81 993.02 992.27 991.78 991.76 992.05 992.51 992.45 992.53 992.67 993.26 994.30 994.50 993.95 994.39 995.34 996.59 997.73
1011.07 1009.19 1007.89 1005.90 1004.16 1002.90 1001.32 1000.64 1000.22 999.78 999.17 998.94 998.46 998.17 997.62 997.15 997.18 997.04 997.71 997.45 996.70 996.74 997.09 997.48 996.20 995.86 994.89 994.06 993.37 992.36 991.95 991.66 991.49 991.54 992.04 991.86 992.05 992.21 992.52 992.83 993.19 993.66 994.47 995.54 996.78
Thickness
5770 5774 5780 5784 5789 5793 5798 5802 5807 5812 5816 5821 5826 5831 5834 5839 5851 5865 5858 5876 5877 5879 5875 5879 5877 5882 5890 5879 5881 5847 5777 5773 5798 5801 5820 5842 5832 5849 5856 5844 5840 5845 5834 5831 5834
5766 5771 5777 5781 5787 5792 5796 5800 5804 5809 5814 5819 5825 5831 5834 5837 5849 5859 5884 5881 5881 5878 5872 5871 5875 5884 5874 5876 5870 5849 5810 5836 5848 5837 5840 5849 5845 5844 5833 5833 5831 5830 5835 5836 5833
5763 5768 5774 5779 5785 5790 5794 5798 5802 5807 5812 5818 5824 5830 5834 5835 5847 5870 5887 5883 5881 5880 5878 5881 5882 5879 5864 5861 5852 5834 5842 5858 5859 5859 5864 5847 5841 5839 5800 5825 5816 5824 5825 5829 5829
5760 5765 5772 5778 5783 5788 5792 5797 5802 5806 5811 5817 5822 5828 5836 5841 5830 5882 5888 5886 5883 5883 5876 5873 5877 5868 5859 5842 5853 5832 5836 5862 5863 5864 5864 5842 5848 5813 5826 5838 5849 5843 5835 5831 5825
5757 5763 5770 5776 5781 5787 5792 5796 5801 5806 5811 5816 5822 5826 5841 5842 5858 5891 5888 5888 5886 5878 5870 5869 5870 5877 5865 5838 5853 5857 5861 5870 5869 5867 5867 5866 5850 5840 5843 5856 5856 5846 5836 5830 5827
5752 5759 5766 5773 5779 5784 5791 5796 5801 5806 5811 5816 5820 5823 5832 5826 5899 5900 5897 5891 5889 5879 5876 5881 5877 5886 5876 5884 5872 5872 5872 5870 5868 5867 5868 5852 5854 5850 5851 5861 5850 5841 5832 5830 5830
5748 5755 5762 5769 5776 5784 5792 5797 5802 5807 5812 5816 5818 5824 5833 5847 5897 5903 5896 5890 5895 5891 5876 5894 5896 5877 5882 5874 5888 5855 5852 5816 5863 5866 5864 5866 5843 5839 5856 5857 5844 5839 5836 5834 5833
5745 5752 5759 5767 5774 5783 5792 5799 5804 5809 5813 5816 5817 5824 5833 5892 5898 5891 5895 5889 5899 5899 5892 5898 5897 5881 5877 5868 5857 5816 5831 5797 5858 5867 5871 5857 5820 5848 5862 5854 5843 5842 5839 5835 5835
5740 5748 5756 5764 5772 5781 5791 5799 5806 5811 5813 5816 5820 5827 5834 5888 5874 5888 5894 5879 5889 5892 5893 5897 5887 5871 5878 5849 5818 5801 5788 5824 5846 5872 5870 5854 5769 5853 5866 5859 5847 5844 5841 5837 5835
5735 5743 5752 5761 5770 5778 5790 5803 5809 5810 5815 5823 5830 5819 5853 5857 5881 5887 5895 5890 5879 5881 5873 5872 5867 5856 5868 5835 5804 5814 5827 5850 5844 5860 5864 5859 5852 5860 5867 5863 5852 5849 5845 5839 5837
5731 5739 5748 5758 5768 5774 5786 5811 5806 5805 5819 5827 5840 5844 5862 5879 5889 5877 5890 5880 5878 5871 5844 5862 5842 5840 5868 5865 5864 5869 5870 5847 5859 5876 5863 5857 5862 5863 5866 5863 5858 5852 5848 5845 5843
5728 5737 5746 5756 5766 5774 5776 5799 5816 5822 5808 5843 5846 5854 5870 5874 5850 5867 5884 5858 5853 5839 5857 5848 5835 5869 5891 5889 5871 5871 5859 5840 5844 5877 5870 5861 5854 5813 5870 5863 5863 5857 5854 5852 5851
5723 5732 5740 5752 5766 5780 5794 5806 5825 5828 5804 5836 5857 5854 5857 5863 5847 5861 5874 5865 5851 5840 5848 5839 5857 5884 5880 5878 5862 5868 5855 5833 5854 5869 5873 5855 5829 5812 5830 5851 5869 5866 5865 5864 5857
5718 5726 5733 5745 5763 5785 5793 5813 5821 5824 5785 5829 5843 5852 5862 5861 5844 5877 5886 5866 5853 5843 5851 5852 5874 5872 5875 5870 5870 5853 5874 5871 5869 5857 5831 5827 5729 5774 5786 5805 5860 5866 5866 5867 5865
5713 5721 5727 5728 5750 5772 5794 5807 5813 5807 5754 5838 5840 5876 5867 5846 5862 5860 5890 5868 5845 5849 5857 5849 5858 5863 5856 5870 5882 5860 5890 5866 5864 5855 5841 5770 5744 5760 5783 5775 5829 5868 5875 5877 5876
5708 5716 5720 5744 5746 5774 5791 5799 5796 5761 5762 5822 5838 5833 5833 5843 5849 5869 5861 5875 5871 5852 5859 5859 5885 5879 5869 5882 5882 5885 5871 5867 5867 5865 5770 5773 5783 5781 5782 5818 5844 5873 5882 5884 5880
5706 5714 5714 5727 5757 5778 5784 5779 5751 5751 5832 5818 5824 5835 5830 5829 5833 5848 5840 5835 5828 5815 5823 5849 5857 5875 5882 5862 5882 5872 5857 5821 5826 5772 5739 5795 5787 5790 5820 5848 5839 5882 5884 5888 5888
5706 5720 5735 5742 5763 5770 5768 5753 5736 5799 5808 5843 5829 5835 5822 5836 5834 5837 5834 5824 5843 5842 5837 5826 5823 5862 5879 5866 5855 5862 5863 5831 5796 5783 5782 5806 5775 5786 5844 5869 5893 5891 5888 5890 5890
5704 5735 5744 5754 5755 5760 5746 5734 5758 5793 5821 5820 5820 5810 5819 5833 5838 5831 5831 5831 5845 5848 5823 5835 5843 5894 5881 5881 5873 5856 5847 5881 5851 5865 5844 5760 5797 5839 5830 5845 5855 5875 5877 5878 5885
5697 5722 5746 5769 5761 5751 5736 5736 5774 5804 5805 5801 5784 5815 5813 5830 5826 5828 5827 5846 5845 5860 5864 5848 5827 5877 5888 5883 5879 5866 5882 5849 5862 5813 5814 5812 5788 5785 5812 5830 5818 5857 5874 5877 5883
5699 5723 5759 5763 5756 5737 5729 5750 5775 5801 5798 5785 5787 5797 5815 5827 5837 5827 5826 5848 5859 5856 5865 5856 5841 5847 5873 5859 5850 5854 5847 5857 5865 5846 5808 5806 5774 5849 5843 5866 5873 5877 5883 5879 5878
5705 5711 5756 5758 5724 5738 5739 5760 5776 5786 5799 5790 5793 5793 5798 5813 5821 5827 5824 5846 5871 5860 5840 5858 5841 5822 5846 5885 5882 5871 5865 5862 5838 5834 5853 5846 5826 5863 5861 5873 5888 5884 5883 5882 5880
5695 5726 5757 5750 5718 5735 5758 5764 5780 5777 5779 5782 5783 5794 5804 5802 5793 5816 5832 5860 5865 5853 5839 5849 5829 5803 5824 5859 5879 5856 5862 5869 5868 5869 5848 5807 5785 5861 5886 5884 5887 5881 5877 5873 5873
5686 5711 5738 5740 5742 5739 5746 5766 5764 5782 5774 5784 5785 5795 5793 5790 5805 5800 5820 5847 5854 5844 5834 5843 5833 5821 5808 5836 5866 5850 5855 5861 5860 5848 5854 5851 5844 5841 5865 5868 5875 5878 5875 5868 5865
5684 5707 5718 5715 5734 5740 5749 5757 5760 5759 5777 5780 5771 5777 5779 5773 5787 5795 5816 5831 5842 5834 5834 5830 5809 5827 5839 5852 5861 5863 5861 5857 5849 5858 5848 5864 5836 5853 5853 5860 5864 5879 5879 5869 5862
5674 5685 5708 5710 5726 5737 5742 5744 5749 5762 5769 5768 5763 5776 5782 5773 5787 5796 5806 5821 5823 5832 5825 5832 5804 5818 5815 5840 5847 5846 5862 5865 5860 5856 5859 5866 5863 5877 5867 5877 5884 5877 5871 5864 5860
5675 5690 5692 5698 5714 5720 5736 5744 5747 5759 5768 5773 5774 5772 5778 5792 5803 5806 5800 5800 5810 5806 5797 5795 5812 5804 5792 5828 5831 5820 5844 5855 5861 5871 5862 5847 5872 5895 5884 5884 5889 5884 5874 5867 5865